EHI
0 0 0 0 0 0 0 0 0 0 0 0 0 0 0 0 0 0 0 0 0 0 0 0 0 0 0 0 0 0 0 0 0 0 0 0 0 0 0 0 0 0 0 0 0 0 0 0 0
0 0 0 0 0 0 0 0 0 0 0 0 0 0 0 0 0 0 0 0 0 0 0 0 0 0 0 0 0 0 0 0 0 0 0 0 0 0 0 0 0 0 0 0 0 0 0 0 0
0 0 0 0 0 0 0 0 0 0 0 0 0 0 0 0 0 0 0 0 0 0 0 0 0 0 0 0 0 0 0 0 0 0 0 0 0 0 0 0 0 0 0 0 0 0 0 0 0
0 0 0 0 0 0 0 0 0 0 0 0 0 0 0 0 0 0 0 0 0 0 0 0 0 0 0 0 0 0 0 0 0 0 0 0 0 0 0 0 0 0 0 0 0 0 0 0 0
0 0 0 0 0 0 0 0 0 0 0 0 0 0 0 0 0 0 0 0 0 0 0 0 0 0 0 0 0 0 0 0 0 0 0 0 0 0 0 0 0 0 0 0 0 0 0 0 0
0 0 0 0 0 0 0 0 0 0 0 0 0 0 0 0 0 0 0 0 0 0 0 0 0 0 0 0 0 0 0 0 0 0 0 0 0 0 0 0 0 0 0 0 0 0 0 0 0
0 0 0 0 0 0 0 0 0 0 0 0 0 0 0 0 0 0 0 0 0 0 0 0 0 0 0 0 0 0 0 0 0 0 0 0 0 0 0 0 0 0 0 0 0 0 0 0 0
0 0 0 0 0 0 0 0 0 0 0 0 0 0 0 0 0 0 0 0 0 0 0 0 0 0 0 0 0 0 0 0 0 0 0 0 0 0 0 0 0 0 0 0 0 0 0 0 0
0 0 0 0 0 0 0 0 0 0 0 0 0 0 0 0 0 0 0 0 0 0 0 0 0 0 0 0 0 0 0 0 0 0 0 0 0 0 0 0 0 0 0 0 0 0 0 0 0
0 0 0 0 0 0 0 0 0 0 0 0 0 0 0 0 0 0 0 0 0 0 0 0 0 0 0 0 0 0 0 0 0 0 0 0 0 0 0 0 0 0 0 0 0 0 0 0 0
0 0 0 0 0 0 0 0 0 0 0 0 0 0 0 0 0 0 0 0 0 0 0 0 0 0 0 0 0 0 0 0 0 0 0 0 0 0 0 0 0 0 0 0 0 0 0 0 0
0 0 0 0 0 0 0 0 0 0 0 0 0 0 0 0 0 0 0 0 0 0 0 0 0 0 0 0 0 0 0 0 0 0 0 0 0 0 0 0 0 0 0 0 0 0 0 0 0
0 0 0 0 0 0 0 0 0 0 0 0 0 0 0 0 0 0 0 0 0 0 0 0 0 0 0 0 0 0 0 0 0 0 0 0 0 0 0 0 0 0 0 0 0 0 0 0 0
0 0 0 0 0 0 0 0 0 0 0 0 0 0 0 0 0 0 0 0 0 0 0 0 0 0 0 0 0 0 0 0 0 0 0 0 0 0 0 0 0 0 0 0 0 0 0 0 0
0 0 0 0 0 0 0 0 0 0 0 0 0 0 0 0 0 0 0 0 0 0 0 0 0 0 0 0 0 0 0 0 0 0 0 0 0 0 0 0 0 0 0 0 0 0 0 0 0
0 0 0 0 0 0 0 0 0 0 0 0 0 0 0 0 0 0 0 0 0 0 0 0 0 0 0 0 0 0 0 0 0 0 0 0 0 0 0 0 0 0 0 0 0 0 0 0 0
0 0 0 0 0 0 0 0 0 0 0 0 0 0 0 0 0 0 0 0 0 0 0 0 0 0 0 0 0 0 0 0 0 0 0 0 0 0 0 0 0 0 0 0 0 0 0 0 0
0 0 0 0 0 0 0 0 0 0 0 0 0 0 0 0 0 0 0 0 0 0 0 0 0 0 0 0 0 0 0 0 0 0 0 0 0 0 0 0 0 0 0 0 0 0 0 0 0
0 0 0 0 0 0 0 0 0 0 0 0 0 0 0 0 0 0 0 0 0 0 0 0 0 0 0 0 0 0 0 0 0 0 0 0 0 0 0 0 0 0 0 0 0 0 0 0 0
0 0 0 0 0 0 0 0 0 0 0 0 0 0 0 0 0 0 0 0 0 0 0 0 0 0 0 0 0 0 0 0 0 0 0 0 0 0 0 0 0 0 0 0 0 0 0 0 0
0 0 0 0 0 0 0 0 0 0 0 0 0 0 0 0 0 0 0 0 0 0 0 0 0 0 0 0 0 0 0 0 0 0 0 0 0 0 0 0 0 0 0 0 0 0 0 0 0
0 0 0 0 0 0 0 0 0 0 0 0 0 0 0 0 0 0 0 0 0 0 0 0 0 0 0 0 0 0 0 0 0 0 0 0 0 0 0 0 0 0 0 0 0 0 0 0 0
0 0 0 0 0 0 0 0 0 0 0 0 0 0 0 0 0 0 0 0 0 0 0 0 0 0 0 0 0 0 0 0 0 0 0 0 0 0 0 0 0 0 0 0 0 0 0 0 0
0 0 0 0 0 0 0 0 0 0 0 0 0 0 0 0 0 0 0 0 0 0 0 0 0 0 0 0 0 0 0 0 0 0 0 0 0 0 0 0 0 0 0 0 0 0 0 0 0
0 0 0 0 0 0 0 0 0 0 0 0 0 0 0 0 0 0 0 0 0 0 0 0 0 0 0 0 0 0 0 0 0 0 0 0 0 0 0 0 0 0 0 0 0 0 0 0 0
0 0 0 0 0 0 0 0 0 0 0 0 0 0 0 0 0 0 0 0 0 0 0 0 0 0 0 0 0 0 0 0 0 0 0 0 0 0 0 0 0 0 0 0 0 0 0 0 0
0 0 0 0 0 0 0 0 0 0 0 0 0 0 0 0 0 0 0 0 0 0 0 0 0 0 0 0 0 0 0 0 0 0 0 0 0 0 0 0 0 0 0 0 0 0 0 0 0
0 0 0 0 0 0 0 0 0 0 0 0 0 0 0 0 0 0 0 0 0 0 0 0 0 0 0 0 0 0 0 0 0 0 0 0 0 0 0 0 0 0 0 0 0 0 0 0 0
0 0 0 0 0 0 0 0 0 0 0 0 0 0 0 0 0 0 0 0 0 0 0 0 0 0 0 0 0 0 0 0 0 0 0 0 0 0 0 0 0 0 0 0 0 0 0 0 0
0 0 0 0 0 0 0 0 0 0 0 0 0 0 0 0 0 0 0 0 0 0 0 0 0 0 0 0 0 0 0 0 0 0 0 0 0 0 0 0 0 0 0 0 0 0 0 0 0
Wind_Speed
5 3 3 4 6 4 3 5 4 2 2 1 5 10 10 6 3 3 3 10 13 12 10 14 17 17 16 16 15 15 15 14 13 13 13 13 13 13 13 13 13 13 13 13 13 14 14 14 13
2 2 4 5 5 1 5 4 4 5 6 6 6 7 7 3 2 7 6 11 16 13 10 11 18 18 17 16 16 15 15 14 13 12 12 12 12 12 12 12 13 13 13 13 13 13 13 13 12
2 2 4 4 3 5 5 4 6 4 4 4 5 5 7 7 6 8 8 15 14 12 9 12 19 18 17 17 16 15 15 14 13 13 12 12 12 12 12 12 12 12 12 12 12 12 12 11 11
3 4 5 3 4 6 5 4 5 6 2 4 7 5 3 4 8 8 14 16 15 11 9 12 19 18 18 17 17 16 15 14 13 12 12 12 11 11 11 11 11 11 11 11 11 10 10 10 10
4 4 3 1 5 5 5 6 5 6 5 4 6 6 2 2 4 13 17 17 16 11 9 11 19 18 18 18 17 16 15 14 13 13 12 12 11 11 10 10 10 10 9 9 9 9 9 8 8
4 4 3 3 5 4 4 6 5 5 4 4 7 7 2 1 10 14 15 15 15 14 11 11 19 19 18 18 17 16 15 15 14 13 12 12 11 11 10 9 8 8 8 8 7 7 7 6 7
4 3 3 4 3 4 5 5 7 6 5 6 9 8 2 3 7 10 11 12 12 13 11 8 10 13 17 17 17 16 15 15 14 13 12 11 11 10 9 8 7 6 6 5 5 5 5 5 5
5 4 1 3 4 5 4 4 5 8 5 5 7 11 8 9 8 8 9 9 10 10 10 8 8 8 8 10 15 16 15 15 14 13 11 10 9 9 9 7 6 5 4 4 3 3 4 4 4
4 3 3 4 4 4 2 2 1 3 6 4 3 7 8 14 12 11 8 7 9 11 9 9 8 8 8 7 11 12 13 13 12 10 11 9 4 3 4 5 6 5 3 2 1 1 2 3 4
4 4 6 4 2 2 2 1 1 3 4 3 3 3 8 15 16 16 14 15 15 15 13 11 11 10 9 8 7 6 6 7 6 5 6 4 3 3 4 6 6 5 3 2 2 2 3 3 2
5 7 5 4 3 2 1 2 1 5 3 5 7 8 12 13 15 16 17 17 18 17 15 14 13 11 10 7 6 4 3 4 5 6 6 4 3 2 2 2 2 2 1 1 2 3 2 2 1
4 6 5 4 2 1 2 1 1 2 5 5 8 14 15 15 17 18 18 16 13 15 16 15 14 12 11 8 7 6 5 4 4 6 6 4 3 3 3 2 2 1 1 1 1 1 2 2 1
6 6 6 5 4 3 3 2 2 4 5 2 6 12 15 17 16 15 13 12 12 15 16 16 15 14 12 9 7 8 6 6 6 5 6 6 4 4 3 2 2 2 2 1 1 0 1 1 2
6 6 6 5 5 4 4 5 3 8 4 2 7 12 14 16 16 12 10 12 14 16 17 16 16 15 13 11 9 8 7 7 6 6 7 7 5 5 4 3 3 2 2 2 1 1 1 1 1
4 3 4 5 5 4 3 7 8 10 4 5 7 10 12 14 14 15 16 16 17 17 17 17 17 16 16 13 11 9 8 7 7 6 7 7 6 6 5 4 3 3 2 2 1 1 1 1 2
2 2 4 6 5 5 6 11 11 8 5 8 9 9 11 13 14 15 16 15 15 15 16 17 16 16 16 14 11 8 8 8 7 6 6 8 7 7 5 4 3 3 2 2 2 1 1 1 1
2 4 6 6 5 6 8 10 10 6 6 8 9 9 9 11 12 13 14 15 15 17 17 17 16 17 16 14 10 9 8 8 7 6 6 7 8 7 5 4 3 3 3 2 2 1 1 0 1
7 6 5 7 5 6 8 11 11 7 7 10 9 9 9 11 13 12 13 14 14 15 16 17 16 16 14 11 8 6 7 7 6 7 7 8 7 8 6 4 4 4 3 2 2 2 1 1 0
6 6 6 6 5 5 9 12 13 10 8 10 10 10 11 12 11 9 10 10 11 12 14 16 15 15 13 11 10 9 8 7 6 6 8 9 8 8 6 5 5 4 4 4 3 2 2 1 1
7 7 6 5 3 5 7 12 12 10 9 11 12 12 12 10 7 7 7 8 11 14 15 16 16 16 16 12 10 7 6 5 5 5 7 8 8 8 7 7 5 5 4 4 3 3 2 1 1
10 10 9 6 2 2 3 8 8 7 6 7 8 9 9 10 10 8 8 9 10 12 15 15 16 15 14 11 7 6 4 3 4 6 6 7 9 8 7 7 6 6 5 4 4 4 4 2 0
13 10 8 6 3 4 2 6 8 6 7 7 8 7 8 8 7 7 8 8 10 11 11 12 13 13 12 12 12 13 9 7 7 6 5 6 8 8 8 8 7 6 5 5 5 4 3 4 2
8 7 8 6 5 4 3 4 10 4 7 9 9 8 8 7 8 8 8 8 7 8 9 9 11 11 11 13 14 13 8 6 4 5 7 7 6 7 8 8 7 6 5 6 5 4 4 3 4
7 5 3 2 2 7 8 7 10 6 9 8 8 8 7 6 6 6 5 5 5 5 7 8 10 10 11 12 13 13 11 9 9 8 8 7 4 5 7 7 7 7 6 6 6 5 5 4 4
9 8 3 3 3 9 6 7 12 10 10 10 10 9 7 6 6 6 6 6 6 7 8 8 11 10 11 12 12 12 12 12 12 10 9 8 5 5 7 7 7 6 6 6 6 5 5 5 4
12 13 10 9 7 5 5 10 11 9 8 7 6 6 6 6 6 7 7 7 7 8 8 9 10 9 10 11 11 10 11 9 8 9 8 9 7 7 8 8 7 7 7 6 6 4 4 4 4
11 11 8 6 3 3 6 7 8 3 3 4 5 6 8 8 7 7 7 7 7 8 8 9 10 8 9 10 9 9 10 9 8 8 8 7 6 6 8 8 8 7 7 7 6 4 5 4 4
12 11 7 7 7 6 6 6 7 6 8 7 7 8 8 7 7 7 7 7 7 7 7 7 8 8 8 9 8 7 8 8 8 8 8 8 7 7 8 8 8 7 7 7 6 4 4 5 4
9 10 8 8 6 7 5 9 9 11 12 11 11 10 9 9 8 7 7 6 6 6 6 7 7 7 7 8 7 7 7 7 8 8 9 8 8 8 9 9 8 8 7 6 6 5 5 5 5
10 11 11 11 8 7 5 9 6 8 9 10 10 9 8 8 8 7 7 6 6 7 7 7 7 7 7 7 7 7 7 7 7 7 8 8 8 8 9 8 8 7 7 7 7 6 6 6 6
Wind_Direction
325 357 73 61 60 58 243 244 209 182 133 126 103 103 110 116 145 160 139 140 139 147 156 153 151 146 142 138 133 129 124 118 114 111 107 104 100 97 94 90 86 83 80 78 76 75 73 73 73
357 25 61 64 93 152 258 240 192 190 169 141 102 96 95 96 119 126 133 153 145 149 151 151 151 148 144 141 137 133 128 124 121 117 112 108 105 101 97 94 91 88 84 81 79 77 76 75 73
353 66 86 83 140 191 227 219 182 176 171 126 91 87 129 152 155 163 161 150 144 148 149 157 154 151 148 145 141 137 133 130 126 123 118 113 109 104 101 98 94 91 88 85 83 80 77 75 72
53 47 59 89 229 228 209 214 172 140 131 89 105 90 122 164 172 166 146 146 144 147 151 160 156 155 152 148 145 142 139 136 133 129 125 120 115 109 106 102 99 96 92 88 84 81 77 73 69
64 76 71 280 250 251 216 209 182 147 152 127 111 118 125 343 141 139 146 149 149 151 154 161 159 157 155 152 149 147 145 143 140 137 132 127 121 116 112 108 104 99 94 90 85 80 75 69 64
61 75 111 233 253 265 243 199 162 155 156 134 118 125 154 84 138 150 153 152 153 154 157 161 162 159 157 156 154 153 151 148 145 143 139 134 130 127 122 117 111 105 96 90 84 77 70 61 54
121 118 189 221 251 263 238 196 161 160 164 172 139 124 155 181 165 150 148 146 150 155 157 160 161 161 162 160 159 158 156 153 151 149 145 142 139 136 131 127 123 115 103 92 81 74 62 50 39
144 118 237 238 229 248 233 177 169 154 175 154 130 144 186 197 163 134 131 138 148 156 161 160 158 158 160 161 163 161 161 159 157 155 150 150 150 146 143 139 137 128 115 102 82 65 47 32 13
115 97 230 234 222 248 259 154 139 146 122 105 135 177 188 150 140 133 135 145 159 167 170 166 161 159 157 160 167 163 164 164 161 158 157 152 139 142 148 163 162 157 154 148 110 27 10 355 340
120 172 225 230 226 240 301 87 146 102 101 96 65 56 123 144 154 159 166 171 174 177 179 175 170 165 163 168 162 162 162 163 156 156 159 151 157 174 179 194 188 187 194 231 275 301 331 342 331
174 199 228 264 273 266 309 346 30 128 167 185 175 162 150 161 169 175 180 181 182 178 178 179 176 171 170 168 163 164 159 159 161 165 166 164 166 182 183 189 205 215 230 288 313 334 337 331 319
209 236 222 245 257 241 237 291 356 177 203 192 179 163 164 174 183 186 187 188 180 177 183 180 178 175 176 171 170 169 167 169 173 178 174 166 170 177 179 190 200 200 206 222 272 302 311 331 338
230 251 249 239 236 220 210 225 236 257 249 209 158 162 179 187 194 197 193 184 177 183 185 182 180 179 178 174 177 177 178 179 180 181 180 174 174 179 181 187 185 196 196 192 193 260 345 1 358
221 228 251 249 234 222 220 250 234 251 253 203 171 183 194 197 199 196 191 188 189 189 187 183 183 182 179 180 182 181 182 180 180 183 184 180 176 175 172 174 182 194 189 178 164 157 99 17 6
204 221 276 253 222 224 199 267 243 244 255 254 221 207 206 210 206 203 200 197 195 192 187 184 185 182 182 183 183 181 182 179 184 186 184 182 177 174 170 169 180 190 177 162 137 105 74 48 29
167 191 245 262 214 201 166 250 258 251 236 246 242 225 216 218 214 213 209 204 198 191 186 187 184 183 185 184 182 180 180 179 183 183 183 183 178 173 165 168 183 180 156 143 132 110 77 30 13
205 208 227 266 226 188 185 239 258 245 216 239 244 236 226 227 227 221 214 207 199 193 187 185 184 183 185 182 178 176 176 180 182 179 180 182 179 174 166 172 179 163 146 146 142 114 119 69 342
202 205 221 229 237 182 206 239 258 259 226 237 242 241 236 232 231 221 211 206 200 193 188 185 183 181 178 174 168 167 173 180 180 180 182 179 179 174 166 168 171 157 146 144 135 127 103 105 323
186 192 222 240 230 187 223 243 255 257 247 246 246 241 239 239 240 227 209 198 190 185 184 183 180 177 173 175 176 177 183 182 183 183 182 180 176 172 168 166 165 161 159 165 158 135 115 61 42
214 225 237 267 248 207 239 254 256 251 240 235 234 234 234 239 247 229 204 186 185 184 184 182 181 178 180 182 180 177 167 172 179 178 182 182 177 173 172 167 167 166 156 157 157 141 130 96 77
216 214 221 230 290 304 283 286 271 267 248 247 236 229 226 223 225 218 198 191 184 185 184 183 183 180 180 170 155 137 127 129 163 183 186 187 180 176 172 171 166 167 163 169 172 159 150 157 118
221 210 203 209 214 262 215 277 276 261 270 256 244 234 227 223 213 205 194 189 188 189 183 180 178 176 174 167 169 169 175 179 184 177 178 179 179 176 174 172 169 168 167 169 174 165 156 148 163
204 187 190 198 195 251 247 243 274 266 254 250 239 232 227 219 203 199 195 189 182 175 174 174 172 173 172 174 175 177 179 172 153 156 168 176 178 177 175 172 169 170 172 173 168 160 160 158 163
166 126 115 76 125 241 221 207 267 232 225 235 232 229 224 210 195 189 181 163 159 160 163 165 168 173 173 175 176 180 175 165 161 169 177 179 176 179 180 174 173 173 172 175 173 169 167 169 167
160 142 157 198 213 240 202 205 247 237 229 218 217 219 216 200 180 175 169 167 165 163 166 167 169 173 175 176 179 182 178 175 178 178 181 178 178 186 188 177 177 175 176 174 169 169 174 174 177
184 168 176 189 202 242 198 222 248 245 237 225 212 204 194 192 186 185 185 178 174 172 169 169 173 173 176 179 181 179 177 179 183 182 180 186 190 190 182 179 179 177 175 173 170 171 181 178 187
171 190 167 143 175 212 243 261 290 249 213 203 197 185 192 197 195 192 188 182 179 177 178 176 174 174 178 179 176 177 178 179 180 180 180 184 184 178 177 177 177 179 177 175 170 181 188 183 194
171 159 146 160 172 216 255 245 233 216 210 208 203 201 206 202 198 194 190 189 186 182 178 175 176 178 178 177 179 180 181 181 177 176 183 185 182 176 174 179 180 179 180 177 176 183 188 188 201
161 169 163 162 177 177 222 251 220 208 203 201 208 207 201 197 198 196 194 190 183 176 174 177 180 175 176 178 178 176 179 177 175 182 187 185 181 177 180 181 180 181 183 181 182 192 189 197 209
171 176 162 178 200 186 190 257 252 220 203 195 202 205 201 197 194 190 185 179 179 182 181 183 182 181 180 176 174 176 175 173 178 185 185 180 180 181 180 177 180 184 185 184 188 197 198 203 212